Tracking 35237 objects as of 6-Sep-2026
HD Live streaming from Space Station
objects crossing your sky now

ARIANE 5 R/B

Track ARIANE 5 R/B now!


NORAD ID: 37208
Int'l Code: 2010-056C
Launch date: October 28, 2010
Source: France (FR)
Launch site: FRENCH GUIANA (FRGUI)

Note: This is a ROCKET BODY
Your satellite tracking list
Your tracking list is empty




NASA's NSSDC Master Catalog

Two Line Element Set (TLE):
1 37208U 10056C   26248.72301294  .00002939  00000-0  56346-3 0  9992
2 37208   2.6574 277.0656 6804666 329.2974   4.4714  2.90424422148160
Source of the keplerian elements: AFSPC